DMSP 5D-2 F13 DEB, 40413

Orbit data source: Space-Track

DMSP 5D-2 F13 DEB, 40413 is space debris in SSO originally from a launch on Fri, 24 Mar 1995 UTC launched from the Air Force Western Test Range (AFWTR). Debris objects in space refer to the collection of defunct objects orbiting the Earth. Examples of debris include non-operational satellites, rocket bodies, and fragments generated from explosions, collisions, or faulty payload assembly.

Loading next visibility...
DMSP 5D-2 F13 DEB details
Identifier
40413, 1995-015AA
Orbit
SSO
Last TLE update8 hours ago
Origin
Flag of USUSAF SMC (US)
ManufacturerUnknown
MissionSpacecraft
Bus & MotorUnknown
MassUnknown
Launch date (UTC)
1995-03-24 (30 years ago)
Launch vehicleUnknown
Launch site
Air Force Western Test Range (AFWTR)
Object type
Payload
Rocket body
Debris
Shape & HBRUnknown
Radar Cross SectionSmall (<0.1 m²)

Expand to show TLE details & history

TLE from 8 hours ago
0 DMSP 5D-2 F13 DEB
1 40413U 95015AA  25025.48571606  .00006202  00000-0  24337-2 0  9994
2 40413  98.6599  51.9424 0012439 339.8962  20.1729 14.29660654514716
Epoch: 2025-01-25T11:39Z
Definitive object data (Epoch: 2025-01-25T11:39:25.867Z)
Latitude0.00002°
Longitude112.05077°
Altitude787.421 km
Speed7.464 km/s
True Right ascension03h 27m 46s
True Declination0° 00' 00"
Sunlit
Object was in daylight at TLE epoch
Visualization TLE readout
Latitude8.94445°
Longitude-66.27163°
Altitude803.794 km
Speed7.448 km/s
Apparent Right ascension12h 57m 19s
Apparent Declination-21° 41' 25"
Sunlit
Object is in daylight
Visualization observer readout
Local Sidereal Time20:31:16
Azimuth266.921° W
Elevation-31.413°
Doppler factor1
Orbital elements
Apogee altitude798.925 km
Perigee altitude781.092 km
Semi-major axis7,168.146 km
Eccentricity0.0012439
Inclination98.6599°
RAAN51.9424°
Arg. of periapsis339.8962°
True anomaly20.22213°
Mean anomaly20.1729°
Eccentric anomaly20.19751°
Mean motion3.57629 °/min
BSTAR0.0024337
Orbital period100.66 mins
Loading maneuver chart data...

DMSP 5D-2 F13 DEB Visibility forecast

Observer location: undefined°, undefined

Span
Click to sort rows by Start time (UTC) header in descending order
Start Az.
Max El. time (UTC)
Max El. Az.
Max El.
End time (UTC)
End Az.
9 mins2025-01-26 01:12:22.898Z149.102° SSE2025-01-26 01:17:22.898Z66.484° ENE39.862°2025-01-26 01:21:22.898Z357.813° N
4 mins2025-01-26 02:55:22.898Z244.661° WSW2025-01-26 02:57:22.898Z271.535° WNW15.815°2025-01-26 02:59:22.898Z297.136° NW
6 mins2025-01-26 13:28:22.898Z59.623° ENE2025-01-26 13:30:22.898Z88.126° E20.118°2025-01-26 13:34:22.898Z140.9° SSE
7 mins2025-01-26 15:07:22.898Z350.254° N2025-01-26 15:10:22.898Z291.029° WNW35.09°2025-01-26 15:14:22.898Z222.985° SW
|